Regional Weather Roundup
Issued by NWS

Home | Current Version | Previous Version | Text Only | Print | Product List | Glossary On
Versions: 1 2 3 4 5 6 7 8 9 10 11 12 13 14 15 16 17 18 19 20 21 22 23 24 25 26 27
000
ASUS44 KLIX 061713
RWRLA
LOUISIANA WEATHER ROUNDUP
NATIONAL WEATHER SERVICE NEW ORLEANS LA
1100 AM CST TUE DEC 06 2016

NOTE: "FAIR" INDICATES FEW OR NO CLOUDS BELOW 12,000 FEET WITH NO
      SIGNIFICANT WEATHER AND/OR OBSTRUCTIONS TO VISIBILITY.
      SKY/WX - SKY CONDITION AND SIGNIFICANT WEATHER.
      TMP - AIR TEMPERATURE.    DP   - DEWPOINT TEMPERATURE.
      RH  - RELATIVE HUMIDITY.  PRES - PRESSURE.
      HX  - HEAT INDEX.         WCI  - WIND CHILL INDEX.

*  THESE STATIONS ARE NOT NWS OR FAA STATIONS AND ARE NOT UNDER
   NWS QUALITY CONTROL.

LAZ040-048-061>063-065-066-069-061800-
SOUTHEAST LOUISIANA

CITY           SKY/WX    TMP DP  RH WIND       PRES   REMARKS
N.O. AUDUBON   NOT AVBL
N.O. INTL ARPT CLOUDY    57  54  89 W8        29.95S
N.O. LAKEFRONT CLOUDY    58  53  84 NW17      29.95S
N.O. DOWNTOWN*   N/A     59  51  75 W10       29.95S
RESERVE*       CLOUDY    59  53  83 W8        29.96S
SLIDELL        CLOUDY    58  52  80 VRB5      29.94R
BATON ROUGE    CLOUDY    55  51  86 W12       29.96S
BOOTHVILLE     PTSUNNY   59  54  83 W10G20    29.96R
BELLE CHASSE   CLOUDY    58  53  84 W7        29.94F
BOGALUSA*      CLOUDY    59  51  76 NW12      29.95S
GALLIANO*        N/A     59  51  73 W7        29.96S
NEW ROADS*     CLOUDY    53  50  90 W6        29.97S
GONZALES*      CLOUDY    56  51  84 NW5       29.95F
HAMMOND*       CLOUDY    55  50  82 NW9G17    29.95S
HOUMA*         PTSUNNY   61  54  77 NW9       29.96S
PORT FOURCHON* MOSUNNY   61  54  77 W14       29.96S

$$

LAZ041-044-053-054-061800-
SOUTHWEST LOUISIANA

CITY           SKY/WX    TMP DP  RH WIND       PRES   REMARKS
LAKE CHARLES   MOSUNNY   58  53  84 VRB3      29.96S
LAFAYETTE      MOSUNNY   59  53  80 N6        29.96S
PATTERSON      MOSUNNY  N/A N/A N/A W7        29.97S
SALT POINT     NOT AVBL
NEW IBERIA     SUNNY     61  51  70 N7        29.96F
CHENAULT AIRPK NOT AVBL

$$

LAZ027-028-061800-
CENTRAL LOUISIANA

CITY           SKY/WX    TMP DP  RH WIND       PRES   REMARKS
FORT POLK      CLOUDY    55  52  89 CALM      29.94F
ALEXANDRIA INT CLOUDY    52  50  93 CALM      29.95R
ALEXANDRIA     CLOUDY    53  50  89 W7        29.96S

$$

LAZ001-002-061800-
NORTHWEST LOUISIANA

CITY           SKY/WX    TMP DP  RH WIND       PRES   REMARKS
SHREVEPORT     CLOUDY    52  50  93 N7        29.95F
BARKSDALE AFB  CLOUDY    51  51 100 N6        29.96R
DTN SHREVEPORT CLOUDY    51  48  89 NW6       29.96R

$$

LAZ014-016-061800-
NORTHEAST LOUISIANA

CITY           SKY/WX    TMP DP  RH WIND       PRES   REMARKS
MONROE         CLOUDY    52  47  83 NW9       29.96R
TALLULAH       CLOUDY    51  47  86 NW8       29.96R

$$





USA.gov is the U.S. government's official web portal to all federal, state and local government web resources and services.